STARLINK-1255, 45399

Orbit data source: Space-Track

STARLINK-1255, 45399 is a payload satellite owned by SpaceX/Seattle (US) in LEO that was launched on Wed, 18 Mar 2020 UTC via an FALCON 9 launch vehicle from the Air Force Eastern Test Range (AFETR). Payloads include a variety of satellites, spacecraft, and rockets equipped with specific instruments for various scientific and technological missions. These include communications satellites like Starlink; space stations such as the ISS; scientific satellites like the Hubble; Earth observation satellites from companies like Planet Labs, Umbra, and HawkEye 360; GPS; miniature CubeSats for education and research; and military/defense satellites.

Loading next visibility...
STARLINK-1255 details
Identifier
45399, 2020-019AR
Orbit
LEO
Last TLE update12 hours ago
Origin
Flag of USSpaceX/Seattle (US)
ManufacturerSpaceX/Seattle
MissionOperational Commercial Communications
Bus & MotorSTARLINK, Unknown motor
Mass260 kg wet, ~248 kg dry
Launch date (UTC)
2020-03-18 (5 years ago)
Launch vehicle
FALCON 9
Launch site
Air Force Eastern Test Range (AFETR)
Object type
Payload
Rocket body
Debris
Shape & HBRBox + 1 Pan, 8.86 m
Radar Cross Section13.562 m², Large (>1 m²)

Expand to show TLE details & history

TLE from 12 hours ago
0 STARLINK-1255
1 45399U 20019AR  24361.26339411  .00019339  00000-0  13125-2 0  9996
2 45399  53.0554 304.7901 0001561  93.0596 267.0572 15.06432053263877
Epoch: 2024-12-26T06:19Z
Definitive object data (Epoch: 2024-12-26T06:19:17.251Z)
Latitude0.00003°
Longitude114.72294°
Altitude548.048 km
Speed7.589 km/s
True Right ascension20h 19m 09s
True Declination0° 00' 00"
Sunlit
Object was in daylight at TLE epoch
Visualization TLE readout
Latitude-53.17912°
Longitude19.87725°
Altitude566.619 km
Speed7.577 km/s
Apparent Right ascension09h 29m 25s
Apparent Declination-64° 21' 19"
Sunlit
Object is in daylight
Visualization observer readout
Local Sidereal Time18:01:47
Azimuth213.22° SW
Elevation-51.559°
Doppler factor1
Orbital elements
Apogee altitude548.465 km
Perigee altitude546.303 km
Semi-major axis6,925.521 km
Eccentricity0.0001561
Inclination53.0554°
RAAN304.7901°
Arg. of periapsis93.0596°
True anomaly267.03934°
Mean anomaly267.0572°
Eccentric anomaly267.04827°
Mean motion3.76586 °/min
BSTAR0.0013125
Orbital period95.6 mins
Loading maneuver chart data...
Loading historical data...
Loading historical data...
Loading historical data...
Loading historical data...
Loading historical data...
Loading historical data...
Loading historical data...

STARLINK-1255 Visibility forecast

Observer location: undefined°, undefined

Span
Click to sort rows by Start time (UTC) header in descending order
Start Az.
Max El. time (UTC)
Max El. Az.
Max El.
End time (UTC)
End Az.
6 mins2024-12-26 22:24:15.496Z185.643° SSW2024-12-26 22:27:15.496Z119.768° SE26.921°2024-12-26 22:30:15.496Z70.368° E
5 mins2024-12-27 00:04:15.496Z272.966° WNW2024-12-27 00:06:15.496Z326.213° NNW32.275°2024-12-27 00:09:15.496Z32.66° NE
5 mins2024-12-27 05:06:15.496Z341.148° N2024-12-27 05:08:15.496Z35.641° NE30.413°2024-12-27 05:11:15.496Z94.528° ESE
6 mins2024-12-27 06:45:15.496Z282.614° WNW2024-12-27 06:47:15.496Z239.902° WSW29.359°2024-12-27 06:51:15.496Z162.339° S
|